Location: Asheville, NC
(35.6000°N, 82.5500°W)
Time: 16:41:12
(UTC-05:00)

Vanguard 3 - Pass Details

Date: 10 December 2017
Orbit: 508 x 3264 km, 33.4° (Epoch: 19 January)

Event Time Altitude Azimuth Distance (km) Brightness Sun altitude
Rises 13:05:15 0° 232° (SW) 3,025 10.8 30.6°
Reaches altitude 10° 13:08:05 10° 220° (SW) 1,895 10.2 30.5°
Maximum altitude 13:11:32 27° 161° (SSE) 1,017 9.0 30.3°
Drops below altitude 10° 13:14:41 10° 101° (E) 1,713 8.9 30.2°
Sets 13:17:06 0° 88° (E) 2,666 9.7 30.1°
